Time,TemperatureF,DewpointF,PressureIn,WindDirection,WindDirectionDegrees,WindSpeedMPH,WindSpeedGustMPH,Humidity,HourlyPrecipIn,Conditions,Clouds,dailyrainin,SoftwareType,DateUTC
2013-08-17 00:02:00,59.5,56.3,30.22,SSE,164,0.0,0.0,89,0.00,,,0.00,meteohub,2013-08-17 05:02:00,
2013-08-17 00:07:00,59.5,56.3,30.22,SSE,164,0.0,0.0,89,0.00,,,0.00,meteohub,2013-08-17 05:07:00,
2013-08-17 00:12:00,59.4,56.1,30.22,SSE,164,0.0,0.0,89,0.00,,,0.00,meteohub,2013-08-17 05:12:00,
2013-08-17 00:17:00,59.4,56.1,30.22,SSE,164,0.0,0.0,89,0.00,,,0.00,meteohub,2013-08-17 05:17:00,
2013-08-17 00:22:00,59.2,56.3,30.22,SSE,164,0.0,0.0,90,0.00,,,0.00,meteohub,2013-08-17 05:22:00,
2013-08-17 00:27:00,58.8,55.9,30.22,SSE,164,0.0,0.0,90,0.00,,,0.00,meteohub,2013-08-17 05:27:00,
2013-08-17 00:33:00,58.6,55.8,30.23,SSE,164,0.0,0.0,90,0.00,,,0.00,meteohub,2013-08-17 05:33:00,
2013-08-17 00:38:00,58.5,55.8,30.23,SSE,164,0.0,0.0,91,0.00,,,0.00,meteohub,2013-08-17 05:38:00,
2013-08-17 00:43:00,58.5,55.8,30.23,SSE,164,0.0,0.0,91,0.00,,,0.00,meteohub,2013-08-17 05:43:00,
2013-08-17 00:48:00,58.3,55.6,30.23,SSE,164,0.0,0.0,91,0.00,,,0.00,meteohub,2013-08-17 05:48:00,
2013-08-17 00:53:00,58.3,55.9,30.22,SSE,164,0.0,0.0,92,0.00,,,0.00,meteohub,2013-08-17 05:53:00,
2013-08-17 00:58:00,58.3,55.9,30.22,SSE,164,0.0,0.0,92,0.00,,,0.00,meteohub,2013-08-17 05:58:00,
2013-08-17 01:03:00,58.3,55.9,30.22,SSE,164,0.0,0.0,92,0.00,,,0.00,meteohub,2013-08-17 06:03:00,
2013-08-17 01:08:00,58.5,56.5,30.23,SSE,164,0.0,0.0,93,0.00,,,0.00,meteohub,2013-08-17 06:08:00,
2013-08-17 01:13:00,58.5,56.5,30.23,SSE,164,0.0,0.0,93,0.00,,,0.00,meteohub,2013-08-17 06:13:00,
2013-08-17 01:18:00,58.5,56.5,30.23,SSE,164,0.0,0.0,93,0.00,,,0.00,meteohub,2013-08-17 06:18:00,
2013-08-17 01:23:00,58.3,56.3,30.23,SSE,164,0.0,0.0,93,0.00,,,0.00,meteohub,2013-08-17 06:23:00,
2013-08-17 01:28:00,58.1,56.1,30.23,SSE,164,0.0,0.0,93,0.00,,,0.00,meteohub,2013-08-17 06:28:00,
2013-08-17 01:33:00,57.9,55.9,30.23,SSE,164,0.0,0.0,93,0.00,,,0.00,meteohub,2013-08-17 06:33:00,
2013-08-17 01:38:00,57.9,55.9,30.23,SSE,164,0.0,0.0,93,0.00,,,0.00,meteohub,2013-08-17 06:38:00,
2013-08-17 01:43:00,57.9,56.1,30.23,SSE,164,0.0,0.0,94,0.00,,,0.00,meteohub,2013-08-17 06:43:00,
2013-08-17 01:48:00,57.7,55.8,30.23,SSE,164,0.0,0.0,93,0.00,,,0.00,meteohub,2013-08-17 06:48:00,
2013-08-17 01:53:00,57.7,55.8,30.23,SSE,164,0.0,0.0,93,0.00,,,0.00,meteohub,2013-08-17 06:53:00,
2013-08-17 01:58:00,57.6,55.6,30.24,SSE,164,0.0,0.0,93,0.00,,,0.00,meteohub,2013-08-17 06:58:00,
2013-08-17 02:03:00,57.6,55.8,30.24,SSE,164,0.0,0.0,94,0.00,,,0.00,meteohub,2013-08-17 07:03:00,
2013-08-17 02:08:00,57.6,55.8,30.24,SSE,164,0.0,0.0,94,0.00,,,0.00,meteohub,2013-08-17 07:08:00,
2013-08-17 02:13:00,57.6,55.8,30.24,SSE,164,0.0,0.0,94,0.00,,,0.00,meteohub,2013-08-17 07:13:00,
2013-08-17 02:18:00,57.4,55.4,30.23,SSE,164,0.0,0.0,93,0.00,,,0.00,meteohub,2013-08-17 07:18:00,
2013-08-17 02:24:00,57.0,55.0,30.24,SSE,164,0.0,0.0,93,0.00,,,0.00,meteohub,2013-08-17 07:24:00,
2013-08-17 02:29:00,56.8,54.9,30.24,SSE,164,0.0,0.0,93,0.00,,,0.00,meteohub,2013-08-17 07:29:00,
2013-08-17 02:34:00,56.7,54.7,30.24,SSE,164,0.0,0.0,93,0.00,,,0.00,meteohub,2013-08-17 07:34:00,
2013-08-17 02:39:00,56.7,54.7,30.24,SSE,164,0.0,0.0,93,0.00,,,0.00,meteohub,2013-08-17 07:39:00,
2013-08-17 02:44:00,56.7,55.0,30.24,SSE,164,0.0,0.0,94,0.00,,,0.00,meteohub,2013-08-17 07:44:00,
2013-08-17 02:49:00,56.7,55.0,30.24,SSE,164,0.0,0.0,94,0.00,,,0.00,meteohub,2013-08-17 07:49:00,
2013-08-17 02:54:00,56.7,54.7,30.24,SSE,164,0.0,0.0,93,0.00,,,0.00,meteohub,2013-08-17 07:54:00,
2013-08-17 02:59:00,56.5,54.5,30.24,SSE,164,0.0,0.0,93,0.00,,,0.00,meteohub,2013-08-17 07:59:00,
2013-08-17 03:04:00,56.5,54.5,30.24,SSE,164,0.0,0.0,93,0.00,,,0.00,meteohub,2013-08-17 08:04:00,
2013-08-17 03:09:00,56.5,54.9,30.24,SSE,164,0.0,0.0,94,0.00,,,0.00,meteohub,2013-08-17 08:09:00,
2013-08-17 03:14:00,56.5,54.5,30.24,SSE,164,0.0,0.0,93,0.00,,,0.00,meteohub,2013-08-17 08:14:00,
2013-08-17 03:19:00,56.5,54.9,30.24,SSE,164,0.0,0.0,94,0.00,,,0.00,meteohub,2013-08-17 08:19:00,
2013-08-17 03:24:00,56.5,54.9,30.25,SSE,164,0.0,0.0,94,0.00,,,0.00,meteohub,2013-08-17 08:24:00,
2013-08-17 03:29:00,56.3,54.7,30.25,SSE,164,0.0,0.0,94,0.00,,,0.00,meteohub,2013-08-17 08:29:00,
2013-08-17 03:34:00,55.9,54.0,30.25,SSE,164,0.0,0.0,93,0.00,,,0.00,meteohub,2013-08-17 08:34:00,
2013-08-17 03:39:00,55.8,53.8,30.25,SSE,164,0.0,0.0,93,0.00,,,0.00,meteohub,2013-08-17 08:39:00,
2013-08-17 03:44:00,55.6,53.6,30.25,SSE,164,0.0,0.0,93,0.00,,,0.00,meteohub,2013-08-17 08:44:00,
2013-08-17 03:49:00,55.2,53.2,30.25,SSE,164,0.0,0.0,93,0.00,,,0.00,meteohub,2013-08-17 08:49:00,
2013-08-17 03:54:00,55.2,53.2,30.24,SSE,164,0.0,0.0,93,0.00,,,0.00,meteohub,2013-08-17 08:54:00,
2013-08-17 03:59:00,55.2,53.2,30.25,SSE,164,0.0,0.0,93,0.00,,,0.00,meteohub,2013-08-17 08:59:00,
2013-08-17 04:04:00,55.2,53.2,30.25,SSE,164,0.0,0.0,93,0.00,,,0.00,meteohub,2013-08-17 09:04:00,
2013-08-17 04:09:00,55.0,53.1,30.25,SSE,164,0.0,0.0,93,0.00,,,0.00,meteohub,2013-08-17 09:09:00,
2013-08-17 04:15:00,55.0,53.4,30.25,SSE,164,0.0,0.0,94,0.00,,,0.00,meteohub,2013-08-17 09:15:00,
2013-08-17 04:20:00,55.0,53.4,30.25,SSE,164,0.0,0.0,94,0.00,,,0.00,meteohub,2013-08-17 09:20:00,
2013-08-17 04:25:00,54.9,53.2,30.25,SSE,164,0.0,0.0,94,0.00,,,0.00,meteohub,2013-08-17 09:25:00,
2013-08-17 04:30:00,54.7,53.1,30.25,SSE,164,0.0,0.0,94,0.00,,,0.00,meteohub,2013-08-17 09:30:00,
2013-08-17 04:35:00,54.7,53.1,30.25,SSE,164,0.0,0.0,94,0.00,,,0.00,meteohub,2013-08-17 09:35:00,
2013-08-17 04:40:00,54.7,53.1,30.25,SSE,164,0.0,0.0,94,0.00,,,0.00,meteohub,2013-08-17 09:40:00,
2013-08-17 04:45:00,54.7,53.1,30.25,SSE,164,0.0,0.0,94,0.00,,,0.00,meteohub,2013-08-17 09:45:00,
2013-08-17 04:50:00,54.7,53.1,30.25,SSE,164,0.0,0.0,94,0.00,,,0.00,meteohub,2013-08-17 09:50:00,
2013-08-17 04:55:00,54.7,53.1,30.25,SSE,164,0.0,0.0,94,0.00,,,0.00,meteohub,2013-08-17 09:55:00,
2013-08-17 05:00:00,54.7,53.1,30.25,SSE,164,0.0,0.0,94,0.00,,,0.00,meteohub,2013-08-17 10:00:00,
2013-08-17 05:05:00,54.7,53.1,30.25,SSE,164,0.0,0.0,94,0.00,,,0.00,meteohub,2013-08-17 10:05:00,
2013-08-17 05:10:00,54.9,53.2,30.25,SSE,164,0.0,0.0,94,0.00,,,0.00,meteohub,2013-08-17 10:10:00,
2013-08-17 05:15:00,54.7,53.1,30.25,SSE,164,0.0,0.0,94,0.00,,,0.00,meteohub,2013-08-17 10:15:00,
2013-08-17 05:20:00,54.7,53.1,30.25,SSE,164,0.0,0.0,94,0.00,,,0.00,meteohub,2013-08-17 10:20:00,
2013-08-17 05:25:00,54.7,53.1,30.25,SSE,164,0.0,0.0,94,0.00,,,0.00,meteohub,2013-08-17 10:25:00,
2013-08-17 05:30:00,54.3,52.7,30.25,SSE,164,0.0,0.0,94,0.00,,,0.00,meteohub,2013-08-17 10:30:00,
2013-08-17 05:35:00,54.0,52.3,30.26,SSE,164,0.0,0.0,94,0.00,,,0.00,meteohub,2013-08-17 10:35:00,
2013-08-17 05:40:00,53.8,52.2,30.26,SSE,164,0.0,0.0,94,0.00,,,0.00,meteohub,2013-08-17 10:40:00,
2013-08-17 05:45:00,53.6,52.0,30.26,SSE,164,0.0,0.0,94,0.00,,,0.00,meteohub,2013-08-17 10:45:00,
2013-08-17 05:50:00,53.4,51.8,30.26,SSE,164,0.0,0.0,94,0.00,,,0.00,meteohub,2013-08-17 10:50:00,
2013-08-17 05:55:00,53.4,51.8,30.26,SSE,164,0.0,0.0,94,0.00,,,0.00,meteohub,2013-08-17 10:55:00,
2013-08-17 06:01:00,53.2,51.6,30.26,SSE,164,0.0,0.0,94,0.00,,,0.00,meteohub,2013-08-17 11:01:00,
2013-08-17 06:06:00,53.2,51.6,30.27,SSE,164,0.0,0.0,94,0.00,,,0.00,meteohub,2013-08-17 11:06:00,
2013-08-17 06:11:00,53.1,51.4,30.27,SSE,164,0.0,0.0,94,0.00,,,0.00,meteohub,2013-08-17 11:11:00,
2013-08-17 06:16:00,53.1,51.4,30.27,SSE,164,0.0,0.0,94,0.00,,,0.00,meteohub,2013-08-17 11:16:00,
2013-08-17 06:21:00,53.1,51.4,30.27,SSE,164,0.0,0.0,94,0.00,,,0.00,meteohub,2013-08-17 11:21:00,
2013-08-17 06:26:00,53.1,51.4,30.27,SSE,164,0.0,0.0,94,0.00,,,0.00,meteohub,2013-08-17 11:26:00,
2013-08-17 06:31:00,53.1,51.4,30.27,SSE,164,0.0,0.0,94,0.00,,,0.00,meteohub,2013-08-17 11:31:00,
2013-08-17 06:36:00,53.1,51.4,30.27,SSE,164,0.0,0.0,94,0.00,,,0.00,meteohub,2013-08-17 11:36:00,
2013-08-17 06:41:00,53.1,51.6,30.27,SSE,164,0.0,0.0,95,0.00,,,0.00,meteohub,2013-08-17 11:41:00,
2013-08-17 06:46:00,53.1,51.6,30.27,SSE,164,0.0,0.0,95,0.00,,,0.00,meteohub,2013-08-17 11:46:00,
2013-08-17 06:51:00,53.2,51.8,30.27,SSE,164,0.0,0.0,95,0.00,,,0.00,meteohub,2013-08-17 11:51:00,
2013-08-17 06:56:00,53.2,51.8,30.28,SSE,164,0.0,0.0,95,0.00,,,0.00,meteohub,2013-08-17 11:56:00,
2013-08-17 07:01:00,53.2,51.8,30.28,SSE,164,0.0,0.0,95,0.00,,,0.00,meteohub,2013-08-17 12:01:00,
2013-08-17 07:06:00,53.4,52.0,30.28,SSE,164,0.0,0.0,95,0.00,,,0.00,meteohub,2013-08-17 12:06:00,
2013-08-17 07:07:00,53.4,52.0,30.28,SSE,164,0.0,0.0,95,0.00,,,0.00,meteohub,2013-08-17 12:07:00,
2013-08-17 07:12:00,53.6,52.2,30.28,SSE,164,0.0,0.0,95,0.00,,,0.00,meteohub,2013-08-17 12:12:00,
2013-08-17 07:17:00,54.0,52.5,30.28,SSE,164,0.0,0.0,95,0.00,,,0.00,meteohub,2013-08-17 12:17:00,
2013-08-17 07:22:00,54.1,52.7,30.28,SSE,164,0.0,0.0,95,0.00,,,0.00,meteohub,2013-08-17 12:22:00,
2013-08-17 07:27:00,54.3,52.9,30.28,SSE,164,0.0,0.0,95,0.00,,,0.00,meteohub,2013-08-17 12:27:00,
2013-08-17 07:32:00,54.7,53.2,30.28,SSE,164,0.0,0.0,95,0.00,,,0.00,meteohub,2013-08-17 12:32:00,
2013-08-17 07:37:00,54.9,53.4,30.28,SSE,164,0.0,0.0,95,0.00,,,0.00,meteohub,2013-08-17 12:37:00,
2013-08-17 07:42:00,55.0,53.6,30.28,SSE,164,0.0,0.0,95,0.00,,,0.00,meteohub,2013-08-17 12:42:00,
2013-08-17 07:47:00,55.8,54.3,30.29,SSE,164,0.0,0.0,95,0.00,,,0.00,meteohub,2013-08-17 12:47:00,
2013-08-17 07:52:00,56.5,55.4,30.28,SSE,164,0.0,0.0,96,0.00,,,0.00,meteohub,2013-08-17 12:52:00,
2013-08-17 07:57:00,56.8,55.8,30.28,SSE,164,0.0,0.0,96,0.00,,,0.00,meteohub,2013-08-17 12:57:00,
2013-08-17 08:02:00,57.6,56.5,30.28,SSE,164,0.0,0.0,96,0.00,,,0.00,meteohub,2013-08-17 13:02:00,
2013-08-17 08:07:00,58.5,57.4,30.28,SSE,164,0.0,0.0,96,0.00,,,0.00,meteohub,2013-08-17 13:07:00,
2013-08-17 08:12:00,59.0,57.9,30.28,SSE,164,0.0,0.0,96,0.00,,,0.00,meteohub,2013-08-17 13:12:00,
2013-08-17 08:17:00,59.5,58.5,30.29,SSE,164,0.0,0.0,96,0.00,,,0.00,meteohub,2013-08-17 13:17:00,
2013-08-17 08:22:00,59.9,58.8,30.29,SSE,164,0.0,0.0,96,0.00,,,0.00,meteohub,2013-08-17 13:22:00,
2013-08-17 08:27:00,60.3,59.2,30.29,SSE,164,0.0,0.0,96,0.00,,,0.00,meteohub,2013-08-17 13:27:00,
2013-08-17 08:32:00,60.4,59.4,30.28,SSE,164,0.0,0.0,96,0.00,,,0.00,meteohub,2013-08-17 13:32:00,
2013-08-17 08:37:00,61.0,59.9,30.28,SSE,164,0.0,0.0,96,0.00,,,0.00,meteohub,2013-08-17 13:37:00,
2013-08-17 08:42:00,61.3,60.3,30.28,SSE,164,0.0,0.0,96,0.00,,,0.00,meteohub,2013-08-17 13:42:00,
2013-08-17 08:47:00,62.2,61.2,30.29,SSE,164,0.0,0.0,96,0.00,,,0.00,meteohub,2013-08-17 13:47:00,
2013-08-17 08:52:00,63.0,61.9,30.28,SSE,164,0.0,0.0,96,0.00,,,0.00,meteohub,2013-08-17 13:52:00,
2013-08-17 08:57:00,63.7,62.6,30.29,SSE,164,0.0,0.0,96,0.00,,,0.00,meteohub,2013-08-17 13:57:00,
2013-08-17 09:02:00,64.2,63.1,30.28,SSE,164,0.0,0.0,96,0.00,,,0.00,meteohub,2013-08-17 14:02:00,
2013-08-17 09:07:00,64.8,63.7,30.28,ESE,117,0.0,2.0,96,0.00,,,0.00,meteohub,2013-08-17 14:07:00,
2013-08-17 09:12:00,65.1,64.0,30.28,ESE,117,0.0,2.0,96,0.00,,,0.00,meteohub,2013-08-17 14:12:00,
2013-08-17 09:17:00,65.7,64.2,30.28,ESE,117,0.0,2.0,95,0.00,,,0.00,meteohub,2013-08-17 14:17:00,
2013-08-17 09:22:00,66.0,63.9,30.28,East,82,0.0,1.0,93,0.00,,,0.00,meteohub,2013-08-17 14:22:00,
2013-08-17 09:27:00,67.1,64.0,30.28,SE,135,0.0,1.0,90,0.00,,,0.00,meteohub,2013-08-17 14:27:00,
2013-08-17 09:32:00,68.4,64.6,30.28,SE,135,0.0,4.0,88,0.00,,,0.00,meteohub,2013-08-17 14:32:00,
2013-08-17 09:37:00,69.3,64.9,30.28,SE,135,0.0,4.0,86,0.00,,,0.00,meteohub,2013-08-17 14:37:00,
2013-08-17 09:42:00,70.2,64.8,30.28,SE,134,0.0,0.0,83,0.00,,,0.00,meteohub,2013-08-17 14:42:00,
2013-08-17 09:47:00,70.7,64.9,30.28,East,96,0.0,1.0,82,0.00,,,0.00,meteohub,2013-08-17 14:47:00,
2013-08-17 09:52:00,71.1,64.9,30.28,SE,124,0.0,1.0,81,0.00,,,0.00,meteohub,2013-08-17 14:52:00,
2013-08-17 09:57:00,71.6,63.7,30.28,SE,127,0.0,1.0,76,0.00,,,0.00,meteohub,2013-08-17 14:57:00,
2013-08-17 10:02:00,72.1,63.0,30.28,SE,127,0.0,1.0,73,0.00,,,0.00,meteohub,2013-08-17 15:02:00,
2013-08-17 10:07:00,72.7,63.9,30.28,SE,131,0.0,1.0,74,0.00,,,0.00,meteohub,2013-08-17 15:07:00,
2013-08-17 10:12:00,73.0,63.9,30.28,SE,131,0.0,1.0,73,0.00,,,0.00,meteohub,2013-08-17 15:12:00,
2013-08-17 10:17:00,73.6,60.6,30.28,South,182,0.0,2.0,64,0.00,,,0.00,meteohub,2013-08-17 15:17:00,
2013-08-17 10:22:00,74.1,62.4,30.28,SE,141,0.0,2.0,67,0.00,,,0.00,meteohub,2013-08-17 15:22:00,
2013-08-17 10:27:00,73.9,62.8,30.28,SE,141,0.0,2.0,68,0.00,,,0.00,meteohub,2013-08-17 15:27:00,
2013-08-17 10:32:00,73.9,62.2,30.28,SSE,152,0.0,2.0,67,0.00,,,0.00,meteohub,2013-08-17 15:32:00,
2013-08-17 10:37:00,73.9,62.2,30.28,South,174,0.0,2.0,67,0.00,,,0.00,meteohub,2013-08-17 15:37:00,
2013-08-17 10:42:00,73.9,62.8,30.28,ENE,65,0.0,2.0,68,0.00,,,0.00,meteohub,2013-08-17 15:42:00,
2013-08-17 10:47:00,73.9,62.8,30.28,NE,47,0.0,2.0,68,0.00,,,0.00,meteohub,2013-08-17 15:47:00,
2013-08-17 10:52:00,73.9,61.0,30.28,ENE,59,0.0,2.0,64,0.00,,,0.00,meteohub,2013-08-17 15:52:00,
2013-08-17 10:57:00,73.9,59.7,30.28,ESE,116,0.0,1.0,61,0.00,,,0.00,meteohub,2013-08-17 15:57:00,
2013-08-17 11:02:00,73.8,60.8,30.28,ESE,116,0.0,1.0,64,0.00,,,0.00,meteohub,2013-08-17 16:02:00,
2013-08-17 11:07:00,73.8,60.4,30.28,SSE,156,0.0,1.0,63,0.00,,,0.00,meteohub,2013-08-17 16:07:00,
2013-08-17 11:12:00,73.8,60.4,30.28,SSE,148,0.0,1.0,63,0.00,,,0.00,meteohub,2013-08-17 16:12:00,
2013-08-17 11:17:00,73.9,61.3,30.27,SSW,202,0.0,3.0,65,0.00,,,0.00,meteohub,2013-08-17 16:17:00,
2013-08-17 11:22:00,73.9,60.6,30.27,NE,48,0.0,3.0,63,0.00,,,0.00,meteohub,2013-08-17 16:22:00,
2013-08-17 11:27:00,74.1,59.7,30.27,WNW,282,0.0,4.0,61,0.00,,,0.00,meteohub,2013-08-17 16:27:00,
2013-08-17 11:32:00,74.5,59.7,30.27,SE,128,0.0,5.0,60,0.00,,,0.00,meteohub,2013-08-17 16:32:00,
2013-08-17 11:37:00,74.8,60.1,30.27,SE,128,0.0,5.0,60,0.00,,,0.00,meteohub,2013-08-17 16:37:00,
2013-08-17 11:42:00,75.0,59.7,30.27,NNW,339,0.0,5.0,59,0.00,,,0.00,meteohub,2013-08-17 16:42:00,
2013-08-17 11:47:00,74.8,59.5,30.27,SE,134,0.0,1.0,59,0.00,,,0.00,meteohub,2013-08-17 16:47:00,
2013-08-17 11:52:00,75.0,58.3,30.27,SE,132,0.0,3.0,56,0.00,,,0.00,meteohub,2013-08-17 16:52:00,
2013-08-17 11:57:00,74.8,60.1,30.27,SSW,196,0.0,3.0,60,0.00,,,0.00,meteohub,2013-08-17 16:57:00,
2013-08-17 12:02:00,74.8,60.4,30.27,SSW,194,0.0,3.0,61,0.00,,,0.00,meteohub,2013-08-17 17:02:00,
2013-08-17 12:07:00,74.8,59.5,30.27,ESE,103,1.0,1.0,59,0.00,,,0.00,meteohub,2013-08-17 17:07:00,
2013-08-17 12:12:00,75.2,60.4,30.27,East,89,0.0,2.0,60,0.00,,,0.00,meteohub,2013-08-17 17:12:00,
2013-08-17 12:17:00,75.6,57.7,30.27,East,94,0.0,2.0,54,0.00,,,0.00,meteohub,2013-08-17 17:17:00,
2013-08-17 12:22:00,75.6,59.2,30.26,WSW,243,0.0,4.0,57,0.00,,,0.00,meteohub,2013-08-17 17:22:00,
2013-08-17 12:27:00,75.7,59.0,30.26,WSW,244,0.0,4.0,56,0.00,,,0.00,meteohub,2013-08-17 17:27:00,
2013-08-17 12:32:00,75.4,60.4,30.26,WSW,244,0.0,1.0,60,0.00,,,0.00,meteohub,2013-08-17 17:32:00,
2013-08-17 12:37:00,74.8,59.5,30.26,SE,133,0.0,1.0,59,0.00,,,0.00,meteohub,2013-08-17 17:37:00,
2013-08-17 12:42:00,74.7,61.2,30.26,NE,48,0.0,2.0,63,0.00,,,0.00,meteohub,2013-08-17 17:42:00,
2013-08-17 12:47:00,75.0,60.3,30.25,NE,55,0.0,4.0,60,0.00,,,0.00,meteohub,2013-08-17 17:47:00,
2013-08-17 12:52:00,75.6,60.3,30.25,WSW,242,0.0,4.0,59,0.00,,,0.00,meteohub,2013-08-17 17:52:00,
2013-08-17 12:57:00,75.6,59.7,30.25,NNE,20,0.0,4.0,58,0.00,,,0.00,meteohub,2013-08-17 17:57:00,
2013-08-17 13:02:00,75.6,59.7,30.25,ENE,59,0.0,2.0,58,0.00,,,0.00,meteohub,2013-08-17 18:02:00,
2013-08-17 13:07:00,75.7,60.8,30.25,NE,56,0.0,2.0,60,0.00,,,0.00,meteohub,2013-08-17 18:07:00,
2013-08-17 13:12:00,76.1,58.3,30.24,SSW,213,1.0,5.0,54,0.00,,,0.00,meteohub,2013-08-17 18:12:00,
2013-08-17 13:17:00,76.5,58.6,30.24,SSW,213,0.0,5.0,54,0.00,,,0.00,meteohub,2013-08-17 18:17:00,
2013-08-17 13:22:00,76.8,58.5,30.24,WSW,256,0.0,5.0,53,0.00,,,0.00,meteohub,2013-08-17 18:22:00,
2013-08-17 13:27:00,77.2,59.2,30.24,SSE,155,0.0,2.0,54,0.00,,,0.00,meteohub,2013-08-17 18:27:00,
2013-08-17 13:32:00,77.5,57.4,30.24,ESE,102,0.0,2.0,50,0.00,,,0.00,meteohub,2013-08-17 18:32:00,
2013-08-17 13:37:00,77.5,56.8,30.24,SE,130,0.0,4.0,49,0.00,,,0.00,meteohub,2013-08-17 18:37:00,
2013-08-17 13:42:00,77.7,58.1,30.24,ESE,114,0.0,5.0,51,0.00,,,0.00,meteohub,2013-08-17 18:42:00,
2013-08-17 13:47:00,77.5,57.9,30.24,ENE,57,0.0,5.0,51,0.00,,,0.00,meteohub,2013-08-17 18:47:00,
2013-08-17 13:52:00,77.4,57.2,30.24,East,94,2.0,2.0,50,0.00,,,0.00,meteohub,2013-08-17 18:52:00,
2013-08-17 13:57:00,77.5,58.5,30.24,SE,125,2.0,6.0,52,0.00,,,0.00,meteohub,2013-08-17 18:57:00,
2013-08-17 14:02:00,77.5,56.8,30.23,WNW,296,0.0,6.0,49,0.00,,,0.00,meteohub,2013-08-17 19:02:00,
2013-08-17 14:07:00,77.7,58.6,30.23,WNW,296,0.0,6.0,52,0.00,,,0.00,meteohub,2013-08-17 19:07:00,
2013-08-17 14:12:00,78.1,60.1,30.23,East,101,0.0,5.0,54,0.00,,,0.00,meteohub,2013-08-17 19:12:00,
2013-08-17 14:17:00,78.4,59.4,30.23,SE,138,0.0,5.0,52,0.00,,,0.00,meteohub,2013-08-17 19:17:00,
2013-08-17 14:22:00,79.0,58.1,30.23,WNW,293,0.0,4.0,49,0.00,,,0.00,meteohub,2013-08-17 19:22:00,
2013-08-17 14:28:00,79.2,59.5,30.22,NE,45,1.0,4.0,51,0.00,,,0.00,meteohub,2013-08-17 19:28:00,
2013-08-17 14:33:00,78.8,59.2,30.22,East,82,0.0,4.0,51,0.00,,,0.00,meteohub,2013-08-17 19:33:00,
2013-08-17 14:38:00,78.6,60.6,30.22,ENE,62,0.0,4.0,54,0.00,,,0.00,meteohub,2013-08-17 19:38:00,
2013-08-17 14:43:00,78.6,60.6,30.22,ESE,108,0.0,4.0,54,0.00,,,0.00,meteohub,2013-08-17 19:43:00,
2013-08-17 14:48:00,78.4,58.3,30.22,ESE,111,0.0,4.0,50,0.00,,,0.00,meteohub,2013-08-17 19:48:00,
2013-08-17 14:53:00,79.0,60.4,30.22,ESE,111,0.0,4.0,53,0.00,,,0.00,meteohub,2013-08-17 19:53:00,
2013-08-17 14:58:00,79.0,59.9,30.22,SW,214,0.0,4.0,52,0.00,,,0.00,meteohub,2013-08-17 19:58:00,
2013-08-17 15:03:00,79.0,58.8,30.22,ESE,121,0.0,2.0,50,0.00,,,0.00,meteohub,2013-08-17 20:03:00,
2013-08-17 15:08:00,78.6,59.0,30.22,SSE,163,0.0,2.0,51,0.00,,,0.00,meteohub,2013-08-17 20:08:00,
2013-08-17 15:13:00,78.6,59.0,30.22,East,80,0.0,2.0,51,0.00,,,0.00,meteohub,2013-08-17 20:13:00,
2013-08-17 15:18:00,78.1,59.5,30.22,East,96,0.0,2.0,53,0.00,,,0.00,meteohub,2013-08-17 20:18:00,
2013-08-17 15:23:00,77.4,58.3,30.22,SSE,165,0.0,2.0,52,0.00,,,0.00,meteohub,2013-08-17 20:23:00,
2013-08-17 15:28:00,77.2,60.3,30.22,NE,47,0.0,2.0,56,0.00,,,0.00,meteohub,2013-08-17 20:28:00,
2013-08-17 15:33:00,77.2,58.6,30.22,SSE,147,0.0,2.0,53,0.00,,,0.00,meteohub,2013-08-17 20:33:00,
2013-08-17 15:38:00,76.8,59.4,30.22,South,189,0.0,2.0,55,0.00,,,0.00,meteohub,2013-08-17 20:38:00,
2013-08-17 15:43:00,77.2,60.8,30.22,East,88,0.0,2.0,57,0.00,,,0.00,meteohub,2013-08-17 20:43:00,
2013-08-17 15:48:00,77.4,57.2,30.22,SE,124,0.0,2.0,50,0.00,,,0.00,meteohub,2013-08-17 20:48:00,
2013-08-17 15:53:00,77.4,59.9,30.22,SE,124,0.0,1.0,55,0.00,,,0.00,meteohub,2013-08-17 20:53:00,
2013-08-17 15:59:00,77.0,59.5,30.22,SE,124,0.0,1.0,55,0.00,,,0.00,meteohub,2013-08-17 20:59:00,
2013-08-17 16:04:00,77.0,59.0,30.21,WNW,300,0.0,1.0,54,0.00,,,0.00,meteohub,2013-08-17 21:04:00,
2013-08-17 16:09:00,77.2,58.6,30.21,ESE,110,0.0,2.0,53,0.00,,,0.00,meteohub,2013-08-17 21:09:00,
2013-08-17 16:14:00,77.4,61.3,30.21,SE,130,0.0,5.0,58,0.00,,,0.00,meteohub,2013-08-17 21:14:00,
2013-08-17 16:19:00,77.5,60.1,30.21,East,82,0.0,5.0,55,0.00,,,0.00,meteohub,2013-08-17 21:19:00,
2013-08-17 16:24:00,77.5,59.0,30.21,East,98,0.0,5.0,53,0.00,,,0.00,meteohub,2013-08-17 21:24:00,
2013-08-17 16:29:00,77.0,58.6,30.21,ENE,57,1.0,4.0,53,0.00,,,0.00,meteohub,2013-08-17 21:29:00,
2013-08-17 16:34:00,76.6,59.7,30.21,NE,55,0.0,6.0,56,0.00,,,0.00,meteohub,2013-08-17 21:34:00,
2013-08-17 16:39:00,76.6,60.8,30.21,ESE,113,0.0,6.0,58,0.00,,,0.00,meteohub,2013-08-17 21:39:00,
2013-08-17 16:44:00,76.6,59.7,30.21,East,83,0.0,6.0,56,0.00,,,0.00,meteohub,2013-08-17 21:44:00,
2013-08-17 16:49:00,76.6,60.3,30.21,SE,138,0.0,5.0,57,0.00,,,0.00,meteohub,2013-08-17 21:49:00,
2013-08-17 16:54:00,76.6,59.7,30.21,SE,138,0.0,2.0,56,0.00,,,0.00,meteohub,2013-08-17 21:54:00,
2013-08-17 16:59:00,76.6,60.3,30.21,ESE,113,0.0,2.0,57,0.00,,,0.00,meteohub,2013-08-17 21:59:00,
2013-08-17 17:04:00,76.5,60.6,30.21,ESE,103,0.0,1.0,58,0.00,,,0.00,meteohub,2013-08-17 22:04:00,
2013-08-17 17:09:00,76.1,60.8,30.21,ESE,103,0.0,1.0,59,0.00,,,0.00,meteohub,2013-08-17 22:09:00,
2013-08-17 17:14:00,75.9,60.6,30.21,ENE,73,0.0,1.0,59,0.00,,,0.00,meteohub,2013-08-17 22:14:00,
2013-08-17 17:19:00,75.9,60.6,30.21,ESE,115,0.0,1.0,59,0.00,,,0.00,meteohub,2013-08-17 22:19:00,
2013-08-17 17:24:00,75.7,58.5,30.21,SE,141,0.0,1.0,55,0.00,,,0.00,meteohub,2013-08-17 22:24:00,
2013-08-17 17:29:00,75.7,59.4,30.20,SE,130,0.0,1.0,57,0.00,,,0.00,meteohub,2013-08-17 22:29:00,
2013-08-17 17:34:00,75.6,59.7,30.20,SE,130,0.0,2.0,58,0.00,,,0.00,meteohub,2013-08-17 22:34:00,
2013-08-17 17:39:00,75.4,60.1,30.20,ENE,70,1.0,2.0,59,0.00,,,0.00,meteohub,2013-08-17 22:39:00,
2013-08-17 17:45:00,75.4,59.0,30.21,East,99,0.0,2.0,57,0.00,,,0.00,meteohub,2013-08-17 22:45:00,
2013-08-17 17:50:00,75.0,59.7,30.21,East,99,0.0,4.0,59,0.00,,,0.00,meteohub,2013-08-17 22:50:00,
2013-08-17 17:55:00,75.0,60.3,30.21,ESE,103,0.0,4.0,60,0.00,,,0.00,meteohub,2013-08-17 22:55:00,
2013-08-17 18:00:00,74.8,60.1,30.21,ESE,117,0.0,2.0,60,0.00,,,0.00,meteohub,2013-08-17 23:00:00,
2013-08-17 18:05:00,74.7,60.3,30.21,South,172,0.0,1.0,61,0.00,,,0.00,meteohub,2013-08-17 23:05:00,
2013-08-17 18:10:00,74.3,59.5,30.21,SE,146,0.0,2.0,60,0.00,,,0.00,meteohub,2013-08-17 23:10:00,
2013-08-17 18:15:00,74.1,59.4,30.21,SSE,148,0.0,4.0,60,0.00,,,0.00,meteohub,2013-08-17 23:15:00,
2013-08-17 18:20:00,73.9,59.2,30.21,SSE,148,0.0,4.0,60,0.00,,,0.00,meteohub,2013-08-17 23:20:00,
2013-08-17 18:25:00,73.8,59.5,30.21,SSE,148,0.0,4.0,61,0.00,,,0.00,meteohub,2013-08-17 23:25:00,
2013-08-17 18:30:00,73.6,59.7,30.21,SSE,148,0.0,0.0,62,0.00,,,0.00,meteohub,2013-08-17 23:30:00,
2013-08-17 18:35:00,73.4,59.5,30.21,SE,125,0.0,1.0,62,0.00,,,0.00,meteohub,2013-08-17 23:35:00,
2013-08-17 18:40:00,73.2,59.9,30.20,SE,125,0.0,1.0,63,0.00,,,0.00,meteohub,2013-08-17 23:40:00,
2013-08-17 18:45:00,73.0,59.7,30.20,South,186,0.0,1.0,63,0.00,,,0.00,meteohub,2013-08-17 23:45:00,
2013-08-17 18:50:00,72.9,59.9,30.20,SE,142,0.0,5.0,64,0.00,,,0.00,meteohub,2013-08-17 23:50:00,
2013-08-17 18:55:00,72.7,59.7,30.20,East,97,0.0,5.0,64,0.00,,,0.00,meteohub,2013-08-17 23:55:00,
2013-08-17 19:00:00,72.5,59.5,30.20,East,97,0.0,5.0,64,0.00,,,0.00,meteohub,2013-08-18 00:00:00,
2013-08-17 19:05:00,72.1,59.7,30.21,SSW,201,0.0,1.0,65,0.00,,,0.00,meteohub,2013-08-18 00:05:00,
2013-08-17 19:10:00,72.0,59.9,30.20,SSW,201,0.0,1.0,66,0.00,,,0.00,meteohub,2013-08-18 00:10:00,
2013-08-17 19:15:00,71.8,59.7,30.21,SSW,201,0.0,1.0,66,0.00,,,0.00,meteohub,2013-08-18 00:15:00,
2013-08-17 19:20:00,71.2,59.7,30.21,SSW,201,0.0,0.0,67,0.00,,,0.00,meteohub,2013-08-18 00:20:00,
2013-08-17 19:25:00,71.1,59.9,30.20,SSW,193,0.0,0.0,68,0.00,,,0.00,meteohub,2013-08-18 00:25:00,
2013-08-17 19:31:00,70.5,59.4,30.20,SSW,193,0.0,0.0,68,0.00,,,0.00,meteohub,2013-08-18 00:31:00,
2013-08-17 19:36:00,70.2,59.5,30.20,SSW,193,0.0,0.0,69,0.00,,,0.00,meteohub,2013-08-18 00:36:00,
2013-08-17 19:41:00,70.0,59.7,30.20,SSW,193,0.0,0.0,70,0.00,,,0.00,meteohub,2013-08-18 00:41:00,
2013-08-17 19:46:00,69.6,59.4,30.20,SSW,193,0.0,0.0,70,0.00,,,0.00,meteohub,2013-08-18 00:46:00,
2013-08-17 19:51:00,69.3,59.5,30.21,SSW,193,0.0,0.0,71,0.00,,,0.00,meteohub,2013-08-18 00:51:00,
2013-08-17 19:56:00,68.7,59.4,30.20,SSW,193,0.0,0.0,72,0.00,,,0.00,meteohub,2013-08-18 00:56:00,
2013-08-17 20:01:00,68.5,59.2,30.20,SSW,193,0.0,0.0,72,0.00,,,0.00,meteohub,2013-08-18 01:01:00,
2013-08-17 20:06:00,68.2,59.2,30.20,SSW,193,0.0,0.0,73,0.00,,,0.00,meteohub,2013-08-18 01:06:00,
2013-08-17 20:11:00,67.8,59.2,30.20,SSW,193,0.0,0.0,74,0.00,,,0.00,meteohub,2013-08-18 01:11:00,
2013-08-17 20:16:00,67.5,59.2,30.20,SSW,193,0.0,0.0,75,0.00,,,0.00,meteohub,2013-08-18 01:16:00,
2013-08-17 20:21:00,67.3,59.0,30.20,SSW,193,0.0,0.0,75,0.00,,,0.00,meteohub,2013-08-18 01:21:00,
2013-08-17 20:26:00,66.7,59.4,30.20,SSW,193,0.0,0.0,77,0.00,,,0.00,meteohub,2013-08-18 01:26:00,
2013-08-17 20:31:00,66.4,59.4,30.20,SSW,193,0.0,0.0,78,0.00,,,0.00,meteohub,2013-08-18 01:31:00,
2013-08-17 20:36:00,66.0,59.4,30.20,SSW,193,0.0,0.0,79,0.00,,,0.00,meteohub,2013-08-18 01:36:00,
2013-08-17 20:41:00,65.7,59.0,30.20,SSW,193,0.0,0.0,79,0.00,,,0.00,meteohub,2013-08-18 01:41:00,
2013-08-17 20:46:00,65.5,58.8,30.20,SSW,193,0.0,0.0,79,0.00,,,0.00,meteohub,2013-08-18 01:46:00,
2013-08-17 20:51:00,65.1,58.8,30.20,SSW,193,0.0,0.0,80,0.00,,,0.00,meteohub,2013-08-18 01:51:00,
2013-08-17 20:56:00,64.8,58.8,30.21,SSW,193,0.0,0.0,81,0.00,,,0.00,meteohub,2013-08-18 01:56:00,
2013-08-17 21:01:00,64.6,58.6,30.21,SSW,193,0.0,0.0,81,0.00,,,0.00,meteohub,2013-08-18 02:01:00,
2013-08-17 21:06:00,64.0,58.5,30.21,SSW,193,0.0,0.0,82,0.00,,,0.00,meteohub,2013-08-18 02:06:00,
2013-08-17 21:11:00,63.7,58.5,30.21,SSW,193,0.0,0.0,83,0.00,,,0.00,meteohub,2013-08-18 02:11:00,
2013-08-17 21:17:00,63.3,58.1,30.21,SSW,193,0.0,0.0,83,0.00,,,0.00,meteohub,2013-08-18 02:17:00,
2013-08-17 21:22:00,63.1,58.3,30.21,SSW,193,0.0,0.0,84,0.00,,,0.00,meteohub,2013-08-18 02:22:00,
2013-08-17 21:27:00,63.0,58.1,30.21,SSW,193,0.0,0.0,84,0.00,,,0.00,meteohub,2013-08-18 02:27:00,
2013-08-17 21:32:00,63.0,58.1,30.21,SSW,193,0.0,0.0,84,0.00,,,0.00,meteohub,2013-08-18 02:32:00,
2013-08-17 21:37:00,62.8,58.3,30.21,SSW,193,0.0,0.0,85,0.00,,,0.00,meteohub,2013-08-18 02:37:00,
2013-08-17 21:42:00,62.6,58.1,30.21,SSW,193,0.0,0.0,85,0.00,,,0.00,meteohub,2013-08-18 02:42:00,
2013-08-17 21:47:00,62.2,57.7,30.21,SSW,193,0.0,0.0,85,0.00,,,0.00,meteohub,2013-08-18 02:47:00,
2013-08-17 21:52:00,62.2,57.7,30.21,SSW,193,0.0,0.0,85,0.00,,,0.00,meteohub,2013-08-18 02:52:00,
2013-08-17 21:57:00,62.1,57.7,30.21,SSW,193,0.0,0.0,86,0.00,,,0.00,meteohub,2013-08-18 02:57:00,
2013-08-17 22:02:00,62.1,57.7,30.21,SSW,193,0.0,0.0,86,0.00,,,0.00,meteohub,2013-08-18 03:02:00,
2013-08-17 22:07:00,61.9,57.6,30.21,SSW,193,0.0,0.0,86,0.00,,,0.00,meteohub,2013-08-18 03:07:00,
2013-08-17 22:12:00,61.7,57.4,30.21,SSW,193,0.0,0.0,86,0.00,,,0.00,meteohub,2013-08-18 03:12:00,
2013-08-17 22:17:00,61.5,57.4,30.21,SSW,193,0.0,0.0,86,0.00,,,0.00,meteohub,2013-08-18 03:17:00,
2013-08-17 22:22:00,61.3,57.4,30.21,SSW,193,0.0,0.0,87,0.00,,,0.00,meteohub,2013-08-18 03:22:00,
2013-08-17 22:27:00,61.2,57.2,30.21,SSW,193,0.0,0.0,87,0.00,,,0.00,meteohub,2013-08-18 03:27:00,
2013-08-17 22:32:00,61.0,57.0,30.21,SSW,193,0.0,0.0,87,0.00,,,0.00,meteohub,2013-08-18 03:32:00,
2013-08-17 22:37:00,60.6,57.0,30.20,SSW,193,0.0,0.0,88,0.00,,,0.00,meteohub,2013-08-18 03:37:00,
2013-08-17 22:42:00,60.4,56.8,30.21,SSW,193,0.0,0.0,88,0.00,,,0.00,meteohub,2013-08-18 03:42:00,
2013-08-17 22:47:00,60.3,56.7,30.20,SSW,193,0.0,0.0,88,0.00,,,0.00,meteohub,2013-08-18 03:47:00,
2013-08-17 22:52:00,60.3,57.0,30.21,SSW,193,0.0,0.0,89,0.00,,,0.00,meteohub,2013-08-18 03:52:00,
2013-08-17 22:57:00,60.1,56.8,30.21,SSW,193,0.0,0.0,89,0.00,,,0.00,meteohub,2013-08-18 03:57:00,
2013-08-17 23:01:00,60.1,57.2,30.21,SSW,193,0.0,0.0,90,0.00,,,0.00,meteohub,2013-08-18 04:01:00,
2013-08-17 23:02:00,60.1,57.2,30.21,SSW,193,0.0,0.0,90,0.00,,,0.00,meteohub,2013-08-18 04:02:00,
2013-08-17 23:03:00,60.1,57.2,30.21,SSW,193,0.0,0.0,90,0.00,,,0.00,meteohub,2013-08-18 04:03:00,
2013-08-17 23:05:00,60.1,57.2,30.21,SSW,193,0.0,0.0,90,0.00,,,0.00,meteohub,2013-08-18 04:05:00,
2013-08-17 23:10:00,60.1,57.2,30.21,SSW,193,0.0,0.0,90,0.00,,,0.00,meteohub,2013-08-18 04:10:00,
2013-08-17 23:15:00,59.9,57.0,30.21,SSW,193,0.0,0.0,90,0.00,,,0.00,meteohub,2013-08-18 04:15:00,
2013-08-17 23:20:00,60.1,57.4,30.21,SSW,193,0.0,0.0,91,0.00,,,0.00,meteohub,2013-08-18 04:20:00,
2013-08-17 23:25:00,60.1,57.4,30.21,SSW,193,0.0,0.0,91,0.00,,,0.00,meteohub,2013-08-18 04:25:00,
2013-08-17 23:30:00,59.9,57.0,30.21,SSW,193,0.0,0.0,90,0.00,,,0.00,meteohub,2013-08-18 04:30:00,
2013-08-17 23:35:00,59.5,56.7,30.21,SSW,193,0.0,0.0,90,0.00,,,0.00,meteohub,2013-08-18 04:35:00,
2013-08-17 23:40:00,59.4,56.7,30.21,SSW,193,0.0,0.0,91,0.00,,,0.00,meteohub,2013-08-18 04:40:00,
2013-08-17 23:45:00,59.2,56.5,30.21,SSW,193,0.0,0.0,91,0.00,,,0.00,meteohub,2013-08-18 04:45:00,
2013-08-17 23:50:00,59.0,56.3,30.21,SSW,193,0.0,0.0,91,0.00,,,0.00,meteohub,2013-08-18 04:50:00,
2013-08-17 23:56:00,59.0,56.7,30.21,SSW,193,0.0,0.0,92,0.00,,,0.00,meteohub,2013-08-18 04:56:00,